Hourly Data Report for April 27, 2012

MIRAMICHI RCS
NEW BRUNSWICK

47°00'34.000" N
65°27'54.000" W
33.00 m
8100989
71744
ACQ

Download Data

Hourly Data (April 2012)
Hourly Data Report for April 27, 2012
TIME
LST
Temp Definition
°C
Dew Point Definition
°C
Rel Hum Definition
%
Precip. Amount Definition
mm

Wind Dir Definition
10's deg

Wind Spd Definition
km/h
Visibility Definition
km
Stn Press Definition
kPa
Hmdx Definition


Wind Chill Definition


Weather Definition


00:00 7.2 1.8 69   19 7   100.42     LegendNANA
01:00 6.8 1.5 69   19 9   100.43     LegendNANA
02:00 6.9 1.4 68   18 7   100.40     LegendNANA
03:00 6.6 1.4 69   18 4   100.34     LegendNANA
04:00 6.2 1.8 73   14 6   100.31     LegendNANA
05:00 5.7 1.6 75   5 11   100.14     LegendNANA
06:00 5.9 2.3 78   7 19   100.03     LegendNANA
07:00 6.0 3.2 82   8 17   99.94     LegendNANA
08:00 7.2 3.5 77   10 20   99.75     LegendNANA
09:00 6.9 4.3 83   9 22   99.55     LegendNANA
10:00 6.9 5.5 91   7 24   99.32     LegendNANA
11:00 6.6 5.4 92   6 19   99.13     LegendNANA
12:00 7.4 6.1 91   8 28   98.93     LegendNANA
13:00 6.5 5.4 93   6 24   98.79     LegendNANA
14:00 6.2 5.1 93   6 19   98.69     LegendNANA
15:00 6.0 4.9 93   5 11   98.58     LegendNANA
16:00 6.2 5.2 93   36 6   98.52     LegendNANA
17:00 6.3 5.1 92   34 4   98.48     LegendNANA
18:00 5.5 4.2 91   31 9   98.57     LegendNANA
19:00 4.6 3.1 90   29 13   98.64     LegendNANA
20:00 4.0 2.5 90   28 17   98.73     LegendNANA
21:00 3.1 1.8 91   27 15   98.82     LegendNANA
22:00 3.1 1.5 89   27 19   98.95     LegendNANA
23:00 3.1 1.3 88   26 19   99.02     LegendNANA

Notes on Data Quality.

Legend

  • E = Estimated
  • M = Missing
  • NA = Not Available*
  • [empty] = Indicates an unobserved value
Date modified: